CZ-3B DEB, 39333

Orbit data source: Space-Track

CZ-3B DEB, 39333 is space debris in HEO originally from a launch on Sat, 04 Sep 2010 UTC launched from the Xichang Space Center, China (XSC). Debris objects in space refer to the collection of defunct objects orbiting the Earth. Examples of debris include non-operational satellites, rocket bodies, and fragments generated from explosions, collisions, or faulty payload assembly.

Loading next visibility...
Identifier
39333, 2010-042E
Orbit
HEO
Country
Flag of CNCN / PRC
Related business
Manufacturer
CALT
Mission
Spacecraft
Bus & Motor
Unknown
Mass
Unknown
Launch date (UTC)
2010-09-04 (16 years ago)
Launch vehicle
Unknown
Launch site
Xichang Space Center, China (XSC)
Object type
Payload
Rocket body
Debris
Shape & HBR
Unknown shape, 0.3 m
Radar Cross Section
Medium (>0.1 m² and <1 m²)

Expand to show TLE details & history
Last TLE update: 1 day ago

TLE from 1 day ago
0 CZ-3B DEB
1 39333U 10042E   26162.80344753  .00000142  00000-0  51820-2 0  9994
2 39333  24.4907  19.6598 7449606 133.1445 312.3924  1.91256089 90008
Epoch: 2026-06-11T19:16Z
TLE epoch observation values (Epoch: 2026-06-11T19:16:57.866Z)
Latitude
-2.10049°
Longitude
-174.33487°
Altitude
21,079.129 km
Speed
3.807 km/s
True Right ascension
01h 00m 11s
True Declination
-2° 05' 50"
Sunlit
Object was in daylight at epoch
Visualization orbit readout
Latitude
Unknown
Longitude
Unknown
Altitude
Unknown
Speed
Unknown
Apparent Right ascension
Unknown
Apparent Declination
Unknown
Sunlit
N/A
Visualization observer readout
Local Sidereal Time
07:49:53
Azimuth
Unknown
Elevation
Unknown
Doppler factor
Unknown
Orbital elements
Apogee altitude
41,467.372 km
Perigee altitude
614.852 km
Semi-major axis
27,419.249 km
Eccentricity
0.74496
Inclination
24.4907°
RAAN
19.6598°
Arg. of periapsis
133.1445°
True anomaly
221.65109°
Mean anomaly
312.3924°
Eccentric anomaly
269.70985°
Mean motion
0.47804 °/min
Orbital period
753.08 mins
BSTAR
0.005182
Loading maneuver chart data...
Computing Atmospheric mass density...
Loading historical data...
Loading historical data...
Loading historical data...
Loading historical data...
Loading historical data...
Loading historical data...
Loading historical data...

Documentation

Showing up to 5 results
|